TimeCDT,TemperatureF,Dew PointF,Humidity,Sea Level PressureIn,VisibilityMPH,Wind Direction,Wind SpeedMPH,Gust SpeedMPH,PrecipitationIn,Events,Conditions,WindDirDegrees,DateUTC
12:15 AM,32.0,24.8,75,30.00,10.0,SSW,4.6,-,N/A,,Clear,210,2013-11-02 05:15:00
12:35 AM,32.0,24.8,75,30.00,10.0,SW,6.9,-,N/A,,Clear,220,2013-11-02 05:35:00
12:55 AM,28.4,24.8,86,30.00,10.0,South,3.5,-,N/A,,Clear,190,2013-11-02 05:55:00
1:15 AM,28.4,24.8,86,30.00,10.0,Calm,Calm,-,N/A,,Clear,0,2013-11-02 06:15:00
1:35 AM,28.4,24.8,86,30.01,10.0,SW,5.8,-,N/A,,Clear,220,2013-11-02 06:35:00
1:55 AM,28.4,24.8,86,30.01,10.0,SW,4.6,-,N/A,,Clear,230,2013-11-02 06:55:00
2:15 AM,26.6,23.0,86,30.02,10.0,SW,4.6,-,N/A,,Clear,220,2013-11-02 07:15:00
2:35 AM,26.6,23.0,86,30.02,10.0,SW,5.8,-,N/A,,Clear,220,2013-11-02 07:35:00
2:55 AM,28.4,24.8,86,30.02,10.0,SW,4.6,-,N/A,,Clear,220,2013-11-02 07:55:00
3:15 AM,28.4,24.8,86,30.02,10.0,SW,6.9,-,N/A,,Clear,220,2013-11-02 08:15:00
3:35 AM,26.6,23.0,86,30.02,10.0,SW,5.8,-,N/A,,Clear,230,2013-11-02 08:35:00
3:55 AM,26.6,23.0,86,30.02,10.0,SW,4.6,-,N/A,,Clear,220,2013-11-02 08:55:00
4:15 AM,26.6,23.0,86,30.02,10.0,SW,3.5,-,N/A,,Clear,220,2013-11-02 09:15:00
4:35 AM,26.6,23.0,86,30.01,10.0,SW,6.9,-,N/A,,Clear,220,2013-11-02 09:35:00
4:55 AM,26.6,23.0,86,30.02,10.0,SW,3.5,-,N/A,,Clear,220,2013-11-02 09:55:00
5:15 AM,26.6,23.0,86,30.02,10.0,SW,4.6,-,N/A,,Clear,220,2013-11-02 10:15:00
5:35 AM,24.8,23.0,93,30.02,10.0,SSW,5.8,-,N/A,,Clear,210,2013-11-02 10:35:00
5:55 AM,24.8,23.0,93,30.01,10.0,SW,5.8,-,N/A,,Clear,230,2013-11-02 10:55:00
6:15 AM,24.8,23.0,93,30.01,10.0,SW,8.1,-,N/A,,Clear,230,2013-11-02 11:15:00
6:35 AM,24.8,23.0,93,30.01,10.0,SW,4.6,-,N/A,,Clear,230,2013-11-02 11:35:00
6:55 AM,24.8,23.0,93,30.01,10.0,Calm,Calm,-,N/A,,Clear,0,2013-11-02 11:55:00
7:15 AM,23.0,19.4,86,30.01,10.0,Calm,Calm,-,N/A,,Clear,0,2013-11-02 12:15:00
7:35 AM,23.0,21.2,93,30.00,10.0,Calm,Calm,-,N/A,,Clear,0,2013-11-02 12:35:00
7:55 AM,21.2,19.4,93,29.99,10.0,Calm,Calm,-,N/A,,Clear,0,2013-11-02 12:55:00
8:15 AM,21.2,19.4,93,30.00,10.0,Calm,Calm,-,N/A,,Clear,0,2013-11-02 13:15:00
8:35 AM,19.4,17.6,93,30.00,10.0,Calm,Calm,-,N/A,,Clear,0,2013-11-02 13:35:00
8:55 AM,21.2,19.4,93,30.00,10.0,Calm,Calm,-,N/A,,Clear,0,2013-11-02 13:55:00
9:15 AM,23.0,21.2,93,30.00,10.0,Calm,Calm,-,N/A,,Clear,0,2013-11-02 14:15:00
9:35 AM,24.8,23.0,93,30.00,10.0,Calm,Calm,-,N/A,,Clear,0,2013-11-02 14:35:00
9:55 AM,28.4,24.8,86,30.00,10.0,Calm,Calm,-,N/A,,Clear,0,2013-11-02 14:55:00
10:15 AM,28.4,24.8,86,30.00,10.0,Calm,Calm,-,N/A,,Clear,0,2013-11-02 15:15:00
10:35 AM,32.0,28.4,87,29.99,10.0,Calm,Calm,-,N/A,,Clear,0,2013-11-02 15:35:00
10:55 AM,35.6,28.4,75,29.98,10.0,ESE,4.6,-,N/A,,Clear,110,2013-11-02 15:55:00
12:35 PM,50.0,28.4,43,29.96,10.0,SSE,6.9,-,N/A,,Clear,150,2013-11-02 17:35:00
12:55 PM,51.8,24.8,35,29.94,10.0,SSE,11.5,-,N/A,,Clear,160,2013-11-02 17:55:00
1:15 PM,53.6,24.8,33,29.93,10.0,South,11.5,-,N/A,,Clear,170,2013-11-02 18:15:00
1:35 PM,53.6,26.6,35,29.92,10.0,SSE,11.5,16.1,N/A,,Clear,160,2013-11-02 18:35:00
1:55 PM,55.4,26.6,33,29.90,10.0,SSE,9.2,-,N/A,,Clear,150,2013-11-02 18:55:00
2:15 PM,55.4,26.6,33,29.88,10.0,SSE,10.4,18.4,N/A,,Clear,150,2013-11-02 19:15:00
2:35 PM,53.6,26.6,35,29.87,10.0,South,15.0,-,N/A,,Clear,170,2013-11-02 19:35:00
2:55 PM,53.6,26.6,35,29.86,10.0,SSE,13.8,19.6,N/A,,Clear,160,2013-11-02 19:55:00
3:15 PM,53.6,26.6,35,29.84,10.0,SSE,15.0,-,N/A,,Clear,150,2013-11-02 20:15:00
3:35 PM,53.6,26.6,35,29.84,10.0,SSE,11.5,21.9,N/A,,Clear,150,2013-11-02 20:35:00
3:55 PM,51.8,26.6,38,29.82,10.0,SE,11.5,17.3,N/A,,Clear,140,2013-11-02 20:55:00
4:15 PM,53.6,26.6,35,29.81,10.0,SSE,16.1,-,N/A,,Clear,150,2013-11-02 21:15:00
4:35 PM,53.6,26.6,35,29.80,10.0,SE,19.6,-,N/A,,Clear,140,2013-11-02 21:35:00
4:55 PM,53.6,26.6,35,29.79,10.0,SE,17.3,24.2,N/A,,Clear,140,2013-11-02 21:55:00
5:15 PM,51.8,26.6,38,29.78,10.0,SE,16.1,21.9,N/A,,Clear,140,2013-11-02 22:15:00
5:35 PM,51.8,26.6,38,29.77,10.0,SE,16.1,19.6,N/A,,Scattered Clouds,130,2013-11-02 22:35:00
5:55 PM,50.0,26.6,40,29.77,10.0,SE,13.8,19.6,N/A,,Scattered Clouds,130,2013-11-02 22:55:00
6:15 PM,50.0,26.6,40,29.76,10.0,SE,12.7,19.6,N/A,,Partly Cloudy,130,2013-11-02 23:15:00
6:35 PM,50.0,26.6,40,29.75,10.0,SE,15.0,-,N/A,,Clear,140,2013-11-02 23:35:00
6:55 PM,48.2,28.4,46,29.75,10.0,North,4.6,-,N/A,,Clear,360,2013-11-02 23:55:00
7:15 PM,48.2,28.4,46,29.74,10.0,SE,11.5,-,N/A,,Scattered Clouds,130,2013-11-03 00:15:00
7:35 PM,48.2,28.4,46,29.73,10.0,SE,11.5,-,N/A,,Overcast,130,2013-11-03 00:35:00
7:55 PM,48.2,28.4,46,29.73,10.0,SE,12.7,-,N/A,,Overcast,130,2013-11-03 00:55:00
8:15 PM,48.2,28.4,46,29.72,10.0,SE,15.0,19.6,N/A,,Mostly Cloudy,130,2013-11-03 01:15:00
8:35 PM,46.4,26.6,46,29.71,10.0,SE,15.0,-,N/A,,Mostly Cloudy,130,2013-11-03 01:35:00
8:55 PM,46.4,26.6,46,29.71,10.0,SE,11.5,-,N/A,,Partly Cloudy,130,2013-11-03 01:55:00
9:15 PM,44.6,26.6,49,29.70,10.0,SE,13.8,-,N/A,,Clear,130,2013-11-03 02:15:00
9:35 PM,44.6,26.6,49,29.69,10.0,SE,13.8,-,N/A,,Clear,130,2013-11-03 02:35:00
9:55 PM,44.6,26.6,49,29.68,10.0,SE,16.1,19.6,N/A,,Clear,130,2013-11-03 02:55:00
10:15 PM,44.6,28.4,53,29.67,10.0,SE,16.1,19.6,N/A,,Clear,130,2013-11-03 03:15:00
10:35 PM,44.6,28.4,53,29.66,10.0,SE,15.0,21.9,N/A,,Clear,130,2013-11-03 03:35:00
10:55 PM,44.6,28.4,53,29.65,10.0,SE,16.1,19.6,N/A,,Clear,130,2013-11-03 03:55:00
11:15 PM,44.6,28.4,53,29.63,10.0,SE,20.7,27.6,N/A,,Clear,130,2013-11-03 04:15:00
11:35 PM,44.6,28.4,53,29.62,10.0,SE,18.4,24.2,N/A,,Clear,130,2013-11-03 04:35:00
11:55 PM,44.6,28.4,53,29.62,10.0,SE,16.1,24.2,N/A,,Clear,130,2013-11-03 04:55:00